Showing default

MIMIR 1, 68490

Orbit data source: Space-Track

MIMIR 1, 68490 is a Norwegian payload satellite in SSO that was launched on Mon, 30 Mar 2026 UTC via an FALCON 9 launch vehicle from the Air Force Western Test Range (AFWTR). Payload-class satellites include a variety of spacecraft equipped with specific instruments for various scientific and technological missions. These include communications satellites like Starlink; space stations such as the ISS; scientific satellites like the Hubble; Earth observation satellites from companies like Planet Labs, Umbra, and HawkEye 360; GPS; miniature CubeSats for education and research; and military/defense satellites.

Loading next visibility...
Identifier
68490, 2026-067CC
Orbit
SSO
Country
Flag of NONO / NOR
Related business
None
Manufacturer
Unknown
Mission
Operational spacecraft
Bus & Motor
Unknown
Mass
Unknown
Launch date (UTC)
2026-03-30 (1 month ago)
Launch vehicle
FALCON 9
Launch site
Air Force Western Test Range (AFWTR)
Object type
Payload
Rocket body
Debris
Shape & HBR
Unknown shape, 1.1 m
Radar Cross Section
RCS unknown

Expand to show TLE details & history
Last TLE update: 1 day ago

TLE from 1 day ago
0 MIMIR 1
1 68490U 26067CC  26126.80507351  .00001693  00000-0  17503-3 0  9992
2 68490  97.7591  85.6920 0003155 132.2247 227.9240 14.91426065  5551
Epoch: 2026-05-06T19:19Z
TLE epoch observation values (Epoch: 2026-05-06T19:19:18.351Z)
Latitude
0.00002°
Longitude
-68.79476°
Altitude
598.004 km
Speed
7.56 km/s
True Right ascension
05h 42m 46s
True Declination
0° 00' 00"
Sunlit
Object was in daylight at epoch
Visualization orbit readout
Latitude
Unknown
Longitude
Unknown
Altitude
Unknown
Speed
Unknown
Apparent Right ascension
Unknown
Apparent Declination
Unknown
Sunlit
N/A
Visualization observer readout
Local Sidereal Time
02:58:22
Azimuth
Unknown
Elevation
Unknown
Doppler factor
Unknown
Orbital elements
Apogee altitude
592.706 km
Perigee altitude
588.309 km
Semi-major axis
6,968.644 km
Eccentricity
0.00032
Inclination
97.7591°
RAAN
85.692°
Arg. of periapsis
132.2247°
True anomaly
227.89717°
Mean anomaly
227.924°
Eccentric anomaly
227.91059°
Mean motion
3.73096 °/min
Orbital period
96.49 mins
BSTAR
0.00017503
Loading maneuver chart data...
Computing Atmospheric mass density...
Loading historical data...
Loading historical data...
Loading historical data...
Loading historical data...
Loading historical data...
Loading historical data...
Loading historical data...

Documentation

Showing up to 5 results
|